Location: Rounton
(54.4000°N, 1.3500°W)
Time: 19:18:17
(UTC+00:00)

Altair - Pass Details

Date: 07 December 2021
Orbit: 1501 x 1683 km, 47.2° (Epoch: 16 January)

Event Time Altitude Azimuth Distance (km) Brightness Sun altitude
Rises 16:05:55 0° 240° (WSW) 4,778 13.0 -3.6°
Reaches altitude 10° 16:09:08 10° 235° (SW) 3,769 11.6 -4.0°
Maximum altitude 16:18:09 51° 164° (SSE) 1,877 8.2 -5.1°
Drops below altitude 10° 16:26:55 10° 93° (E) 3,668 9.0 -6.2°
Enters shadow 16:29:33 - 89° (E) 4,495 9.4 -6.5°
Sets 16:30:00 0° 88° (E) 4,641 - -6.6°
